| Date | Time | Temp. (oF) | Dew Point (oF) | Rel. Hum. (%) | Press. (in.) | Wind Dir. | Wind Speed (mph) | Hourly Rainfall (in.) |
|
|---|---|---|---|---|---|---|---|---|---|
| 1 | 01/18 | 00:00 | 12 | 1 | 61 | 30.48 | WNW | 8 | 0.00 |
| 2 | 01/17 | 23:00 | 13 | 0 | 56 | 30.47 | WSW | 9 | 0.00 |
| 3 | 01/17 | 22:00 | 13 | 2 | 61 | 30.47 | WNW | 13 | 0.00 |
| 4 | 01/17 | 21:00 | 14 | 3 | 62 | 30.46 | WNW | 15 | 0.00 |
| 5 | 01/17 | 20:00 | 14 | 2 | 60 | 30.45 | WSW | 16 | 0.00 |
| 6 | 01/17 | 19:00 | 15 | 2 | 56 | 30.43 | W | 7 | 0.00 |
| 7 | 01/17 | 18:00 | 15 | 3 | 60 | 30.40 | WNW | 9 | 0.00 |
| 8 | 01/17 | 17:00 | 17 | 3 | 56 | 30.37 | WNW | 16 | 0.00 |
| 9 | 01/17 | 16:00 | 18 | 4 | 56 | 30.35 | SW | 9 | 0.00 |
| 10 | 01/17 | 15:00 | 19 | 6 | 57 | 30.34 | WNW | 12 | 0.00 |
| 11 | 01/17 | 14:00 | 19 | 8 | 62 | 30.33 | WNW | 8 | 0.00 |
| 12 | 01/17 | 13:00 | 21 | 10 | 63 | 30.34 | NW | 12 | 0.00 |
| 13 | 01/17 | 12:00 | 21 | 9 | 60 | 30.35 | WNW | 10 | 0.00 |
| 14 | 01/17 | 11:00 | 22 | 11 | 63 | 30.38 | NW | 8 | 0.00 |
| 15 | 01/17 | 10:00 | 20 | 11 | 68 | 30.39 | WNW | 12 | 0.00 |
| 16 | 01/17 | 09:00 | 20 | 13 | 74 | 30.38 | NNW | 6 | 0.00 |
| 17 | 01/17 | 08:00 | 20 | 13 | 74 | 30.35 | NW | 9 | 0.00 |
| 18 | 01/17 | 07:00 | 21 | 14 | 74 | 30.33 | NW | 7 | 0.00 |
| 19 | 01/17 | 06:00 | 22 | 15 | 76 | 30.30 | NNW | 8 | 0.00 |
| 20 | 01/17 | 05:00 | 22 | 18 | 88 | 30.29 | NW | 11 | 0.00 |
| 21 | 01/17 | 04:00 | 22 | 22 | 100 | 30.26 | NNW | 6 | 0.00 |
| 22 | 01/17 | 03:00 | 23 | 23 | 100 | 30.25 | NNW | 5 | 0.00 |
| 23 | 01/17 | 02:00 | 24 | 23 | 100 | 30.24 | NW | 3 | 0.00 |
| 24 | 01/17 | 01:00 | 24 | 23 | 99 | 30.24 | NW | 4 | 0.00 |